User: anonymous   Login
Location: Igon
(43.1667°N, 0.2333°W)
Time: 04:34:56
(UTC+00:00)
Language:

OBJECT B - Orbit

View from above orbital plane
View from above orbital plane
View from above satellite
View from above satellite

Ground track
Ground track

The orbit data is extracted from the following two-line orbital elements,

1 44839U 19087B   21165.77932933  .00001435  00000-0  65355-4 0  9992
2 44839  97.4382 322.3767 0014267 116.1388 355.4367 15.22227654 84451
Epoch (UTC): 14 June 2021 18:42:14
Eccentricity: 0.0014267
inclination: 97.4382°
perigee height: 489 km
apogee height: 509 km
right ascension of ascending node: 322.3767°
argument of perigee: 116.1388°
revolutions per day: 15.22227654
mean anomaly at epoch: 355.4367°
orbit number at epoch: 8445

The dashed part of the orbit path shows where the satellite is in the earth's shadow,  

DLR